AO-07 1 07530U 74089B 14086.82703944 -.00000046 00000-0 -18141-4 0 9260 2 07530 101.4654 071.3598 0012397 093.9631 023.1508 12.53603758801327 FO-29 1 24278U 96046B 14086.13714816 -.00000025 00000-0 78032-5 0 3355 2 24278 098.5176 111.3055 0351271 150.4221 255.4488 13.53019314869572 SO-33 1 25509U 98061B 14085.88057420 .00001961 00000-0 37664-3 0 7160 2 25509 031.4308 266.7144 0349788 113.3420 025.2673 14.29406292805361 RS-22 1 27939U 03042A 14086.89499270 .00002009 00000-0 38249-3 0 3451 2 27939 097.8052 265.1078 0013805 010.4315 349.7182 14.65034165560823 VO-52 1 28650U 05017B 14086.77528981 .00004817 00000-0 56583-3 0 6931 2 28650 097.5608 095.8282 0026932 068.6922 291.7165 14.85085345481149 HO-68 1 36122U 09072B 14086.70719354 -.00000043 00000-0 00000 0 0 4449 2 36122 100.2595 141.0349 0007667 066.4853 293.7073 13.16313638205719 AO-73 1 39444U 13066AE 14085.97639954 .00004936 00000-0 67059-3 0 1006 2 39444 097.7787 159.4202 0063133 148.8551 211.6474 14.77865625 17321 UO-11 1 14781U 84021B 14086.78298495 .00001640 00000-0 21603-3 0 4493 2 14781 097.8609 148.4656 0010090 089.7040 270.5329 14.81435478615919 AO-16 1 20439U 90005D 14086.45454682 .00000378 00000-0 15599-3 0 9865 2 20439 098.5021 025.3544 0011578 046.6131 090.4477 14.32316350262785 LO-19 1 20442U 90005G 14085.79682533 .00000391 00000-0 15990-3 0 9234 2 20442 098.4727 025.6144 0012387 038.0956 322.1102 14.32519899262883 AO-27 1 22825U 93061C 14086.79354198 .00000319 00000-0 14179-3 0 6279 2 22825 098.6552 033.3429 0008797 169.4250 220.6994 14.29685903 69158 IO-26 1 22826U 93061D 14085.89041917 .00000330 00000-0 14502-3 0 3856 2 22826 098.6492 032.6785 0009424 165.5220 194.6234 14.29981572 69159 GO-32 1 25397U 98043D 14085.50796448 .00000190 00000-0 10200-3 0 3081 2 25397 098.4597 046.6223 0001737 149.1590 327.1931 14.23422487816109 NO-44 1 26931U 01043C 14086.70957068 .00000408 00000-0 18986-3 0 5634 2 26931 067.0514 248.5536 0005444 276.9088 083.1393 14.30075078651954 SO-50 1 27607U 02058C 14086.51700259 .00001703 00000-0 27880-3 0 3437 2 27607 064.5553 121.2726 0038395 038.8086 321.5761 14.73560905605448 CO-55 1 27844U 03031E 14085.98637294 .00000592 00000-0 29070-3 0 8860 2 27844 098.6996 095.9413 0010606 148.2305 264.4240 14.21440250556901 CO-57 1 27848U 03031J 14085.50014381 .00000534 00000-0 26575-3 0 8276 2 27848 098.7088 095.1276 0010429 155.4312 357.8476 14.21136025556751 AO-51 1 28375U 04025K 14086.43044426 .00000432 00000-0 14136-3 0 8033 2 28375 098.2429 036.1622 0082192 238.9157 120.3948 14.41333017512123 CP3 1 31129U 07012N 14085.96239457 .00002416 00000-0 54316-3 0 7060 2 31129 097.9262 068.1558 0097222 266.9753 160.7239 14.54473225368086 CO-65 1 32785U 08021C 14086.59392834 .00003790 00000-0 44995-3 0 9058 2 32785 097.7100 140.5430 0015487 098.1056 067.2017 14.84958525319919 PRISM 1 33493U 09002B 14086.77352432 .00008869 00000-0 95507-3 0 7690 2 33493 098.2443 259.0277 0017335 352.3246 007.7768 14.88604662280066 SOHLA-1 1 33496U 09002E 14086.15185306 .00001220 00000-0 20852-3 0 3083 2 33496 098.1588 206.9412 0007492 138.0220 344.2883 14.70688151277456 TISAT-1 1 36799U 10035E 14086.77877017 .00006282 00000-0 74028-3 0 315 2 36799 098.0167 178.1965 0013122 223.2561 136.7641 14.85073348200636 STUDSAT 1 36801U 10035G 14086.46729247 .00026847 00000-0 24903-2 0 7936 2 36801 098.0327 184.4199 0010570 200.8636 289.9336 14.94358200200911 ALMASAT-1 1 38078U 12006B 14086.51770115 .00076394 00000-0 16916-2 0 9793 2 38078 069.4685 255.3886 0620262 140.3338 286.0218 14.43108710109829 XATCOBEO 1 38082U 12006F 14086.77993192 .00222598 13351-4 23513-2 0 730 2 38082 069.4499 180.1064 0332509 098.1902 004.1924 15.18050878111887 CUBEBUG-1 1 39153U 13018D 14086.68886018 .00003285 00000-0 46820-3 0 9753 2 39153 098.0456 167.1561 0016844 251.7162 108.2218 14.77388246 49521 ESTCUBE-1 1 39161U 13021C 14086.87573115 .00002559 00000-0 43731-3 0 9524 2 39161 098.1007 168.3703 0008732 298.0041 062.0284 14.69743720 47656 MET-3/5 1 21655U 91056A 14086.15217485 .00000122 00000-0 28538-3 0 9345 2 21655 082.5567 054.3719 0014214 138.7783 221.4416 13.17054760 87180 MET-2/21 1 22782U 93055A 14086.50443638 .00000080 00000-0 58682-4 0 122 2 22782 082.5490 238.1030 0023465 133.3189 288.6923 13.83730417 38822 OKEAN-4 1 23317U 94066A 14086.16801105 .00002278 00000-0 26163-3 0 4885 2 23317 082.5389 144.8211 0020701 015.5034 040.8871 14.85295080 50939 NOAA-14 1 23455U 94089A 14086.48415271 .00000091 00000-0 70868-4 0 6989 2 23455 098.7798 171.3638 0008438 270.4063 153.9643 14.13959869992403 NOAA-15 1 25338U 98030A 14086.74694450 .00000517 00000-0 21946-3 0 1281 2 25338 098.7493 080.7806 0011265 029.2678 330.9615 14.25378733825297 RESURS 1 25394U 98043A 14086.54261807 .00000139 00000-0 77913-4 0 6181 2 25394 098.4043 054.3909 0002476 122.3665 012.0324 14.24382167816697 FENGYUN1 1 25730U 99025A 14085.83618759 .00004660 00000-0 25756-2 0 1105 2 25730 098.9064 047.4741 0027716 345.1367 044.6748 14.11664303765903 OKEAN-0 1 25860U 99039A 14085.50137292 .00001795 00000-0 27375-3 0 2091 2 25860 098.0340 049.9095 0001156 083.3093 028.8346 14.75106638789963 NOAA-16 1 26536U 00055A 14086.46131111 .00000261 00000-0 16426-3 0 6177 2 26536 098.9988 146.4353 0011206 061.3061 054.1460 14.13012115696570 NOAA-17 1 27453U 02032A 14086.47701999 .00000348 00000-0 16700-3 0 5249 2 27453 098.3132 090.4978 0012524 059.1677 093.9011 14.24716708611051 NOAA-18 1 28654U 05018A 14086.47939508 .00000347 00000-0 21475-3 0 79 2 28654 099.1413 064.3731 0015200 131.4633 336.7160 14.11978689456035 NOAA-19 1 33591U 09005A 14086.49134758 .00000402 00000-0 24536-3 0 1750 2 33591 098.9384 031.8052 0013851 354.9723 116.3191 14.11674546264467 HUBBLE 1 20580U 90037B 14086.64732154 .00005283 00000-0 35105-3 0 4670 2 20580 028.4700 213.0284 0003441 126.6872 348.9827 15.05025231112427 ISS 1 25544U 98067A 14087.01143693 .00021013 00000-0 36052-3 0 9612 2 25544 051.6493 141.8905 0003532 001.9766 062.7859 15.51126890878738 CO-58 1 28895U 05043F 14086.07157402 .00002011 00000-0 41185-3 0 7263 2 28895 097.8423 292.1781 0016110 269.7372 090.1984 14.61705023448255 FALCON 1 30776U 07006E 14085.64014549 .00017159 00000-0 90418-3 0 8310 2 30776 035.4291 264.3594 0001704 291.6861 134.4574 15.14801833388200 MAST 1 31126U 07012K 14086.80372809 .00001340 00000-0 30376-3 0 68 2 31126 097.9083 071.9788 0091057 247.6889 231.8555 14.55132832368557 CAPE1 1 31130U 07012P 14086.47707929 .00002187 00000-0 49475-3 0 117 2 31130 097.9275 068.2258 0097778 266.5990 092.4019 14.54244757367931 COMPASS 1 32787U 08021E 14086.10862290 .00006082 00000-0 67822-3 0 8864 2 32787 097.7120 141.9749 0015552 094.0413 266.2582 14.87304991319986 AAUSAT2 1 32788U 08021F 14086.15059412 .00007738 00000-0 84773-3 0 8733 2 32788 097.7127 142.9072 0015046 092.9577 267.3362 14.87949989320049 DO-64 1 32789U 08021G 14086.17690826 .00013637 00000-0 13421-2 0 9092 2 32789 097.7301 148.6806 0013530 083.2254 336.7152 14.92133798320264 CO-66 1 32791U 08021J 14086.12854011 .00005197 00000-0 59782-3 0 8685 2 32791 097.7114 140.9238 0016108 096.2193 264.0858 14.86087404319868 RS-30 1 32953U 08025A 14086.77806273 .00000010 00000-0 00000 0 0 7769 2 32953 082.4986 251.8265 0018382 335.6583 024.3630 12.43044286265145 METEOR-M 1 35865U 09049A 14086.66968077 .00000025 00000-0 30788-4 0 3853 2 35865 098.5603 136.5162 0002444 352.9202 007.1954 14.21914448234756 RS-38 1 35869U 09049E 14086.74783457 .00000127 00000-0 76271-4 0 3202 2 35869 098.5527 136.4201 0003845 344.5652 148.6999 14.22193266234792 JUGNU 1 37839U 11058B 14086.14746227 .00000609 00000-0 18360-3 0 5876 2 37839 019.9627 032.1438 0018982 159.7020 281.6196 14.12276548126944 SRMSAT 1 37841U 11058D 14086.17027123 .00000545 00000-0 15605-3 0 5901 2 37841 019.9729 049.6822 0012022 102.7742 333.7463 14.10324089126766 RAX-2 1 37853U 11061D 14086.50604773 .00013995 00000-0 97157-3 0 7601 2 37853 101.7152 077.2696 0219942 292.8753 182.5093 14.88239161130505 AUBIESAT 1 37854U 11061E 14086.49638014 .00014430 00000-0 97327-3 0 7429 2 37854 101.7199 078.8372 0218132 290.5407 191.7482 14.89459932130545 HRBE 1 37855U 11061F 14085.96802094 .00014299 00000-0 97467-3 0 7510 2 37855 101.7196 077.5405 0220187 293.0593 131.9448 14.88814755130447 RS-39 1 38051U 11062C 14086.79210716 .00096600 00000-0 17066-2 0 3930 2 38051 051.6292 269.5149 0009884 233.9875 204.4531 15.49505741121448 E-STAR 1 38079U 12006C 14086.41790137 .00147757 69597-5 21409-2 0 7951 2 38079 069.4582 204.4241 0438348 112.4107 311.1762 14.90108608111209 GOLIAT 1 38085U 12006J 14086.51173783 .00147767 68436-5 22115-2 0 9163 2 38085 069.4621 209.5717 0456568 115.0331 249.8941 14.85670153111070 HORYU-2 1 38340U 12025D 14085.85990312 .00004138 00000-0 66450-3 0 8059 2 38340 098.2513 041.7281 0013667 077.8118 282.4609 14.72129664 99681 RS-40 1 38735U 12041C 14086.63948960 .00000024 00000-0 10000-3 0 5264 2 38735 082.4804 338.3980 0017756 072.1555 288.1466 12.42557911 75452 PROITERES 1 38756U 12047B 14086.78091125 .00001808 00000-0 27784-3 0 6901 2 38756 098.2297 173.7482 0011272 283.4913 076.5039 14.74787473 83185 BEESAT-3 1 39134U 13015E 14086.90584524 .00016360 00000-0 11823-2 0 5388 2 39134 064.8624 035.6052 0020771 324.3315 035.6416 15.04029475 51436 BEESAT-2 1 39136U 13015G 14086.47453617 .00014082 00000-0 10327-2 0 5275 2 39136 064.8657 037.2262 0020344 323.3941 036.5794 15.03563178 51368 LO-75 1 39382U 13064C 14086.53243129 .00092978 00000-0 28034-2 0 1678 2 39382 040.4981 223.1898 0012040 013.2249 346.9191 15.33149944 19471 ZACUBE-1 1 39417U 13066B 14086.86193902 .00004427 00000-0 60389-3 0 2569 2 39417 097.7820 160.2681 0063379 146.2236 214.3038 14.77742666 18689 TRITON-1 1 39427U 13066M 14085.96905524 .00003763 00000-0 63911-3 0 1072 2 39427 097.7694 156.8875 0119614 151.5378 209.2477 14.65075854 18354 DELFIN3XT 1 39428U 13066N 14085.97584854 .00005922 00000-0 10340-2 0 1114 2 39428 097.7676 156.4096 0130779 152.6151 208.2106 14.62784645 18318 GOMX-1 1 39430U 13066Q 14086.77454531 .00003829 00000-0 73485-3 0 3413 2 39430 097.7668 155.9736 0157879 153.0378 207.9131 14.56524966 18363 MO-76 1 39436U 13066W 14085.98863635 .00026451 00000-0 28896-2 0 1453 2 39436 097.7824 160.9783 0029504 160.1250 200.1479 14.87520545 18646 LO-74 1 39440U 13066AA 14086.27260435 .00004001 00000-0 59905-3 0 1059 2 39440 097.7765 158.6973 0085812 148.1796 212.4664 14.72705486 18527 PUCPSAT-1 1 39442U 13066AC 14086.21264617 .00005883 00000-0 67925-3 0 1028 2 39442 097.7859 161.1620 0035495 152.8944 207.4160 14.85530461 17459 LITSAT-1 1 39568U 98067EM 14086.74466825 .00202122 00000-0 23779-2 0 475 2 39568 051.6477 142.2784 0009601 019.0864 084.2791 15.60168604 4254 LITUANSAT 1 39569U 98067EN 14086.64784559 .00117976 00000-0 15876-2 0 888 2 39569 051.6489 143.0624 0008113 009.0452 127.6044 15.56943224 4234 SHINAISAT 1 39572U 14009A 14086.19573937 .00057882 00000-0 67013-3 0 455 2 39572 065.0090 326.0295 0012034 277.4603 082.5178 15.61415692 4278 OPUSAT 1 39575U 14009D 14086.14162702 .00121057 00000-0 11658-2 0 513 2 39575 065.0114 325.7849 0004876 300.9233 059.1444 15.65914413 4270 TEIKYOSAT 1 39576U 14009E 14086.17212704 .00068358 00000-0 74362-3 0 421 2 39576 065.0143 325.9439 0007238 294.8342 065.2068 15.63025481 4273 IFT-1 1 39577U 14009F 14086.72640079 .00096397 00000-0 96855-3 0 484 2 39577 065.0076 323.8458 0005198 301.9088 058.1555 15.64939507 4363 INVADER 1 39578U 14009G 14086.75346632 .00217662 00000-0 17879-2 0 417 2 39578 065.0069 323.4457 0005126 291.1655 068.9025 15.69516792 4376 STARS-II 1 39579U 14009H 14086.69808087 .00333203 00000-0 25252-2 0 445 2 39579 065.0069 323.7008 0009523 255.4527 104.5611 15.71077602 4360 /EX
